DELTA 1 DEB, 12532

Orbit data source: Space-Track

DELTA 1 DEB, 12532 is space debris in SSO originally from a launch on Thu, 29 Jul 1976 UTC launched from the Air Force Western Test Range (AFWTR). Debris objects in space refer to the collection of defunct objects orbiting the Earth. Examples of debris include non-operational satellites, rocket bodies, and fragments generated from explosions, collisions, or faulty payload assembly.

Loading next visibility...
Identifier
12532, 1976-077DM
Orbit
SSO
Country
Flag of USUS
Related business
Manufacturer
Unknown
Mission
Spacecraft
Bus & Motor
Unknown
Mass
Unknown
Launch date (UTC)
1976-07-29 (50 years ago)
Launch vehicle
Unknown
Launch site
Air Force Western Test Range (AFWTR)
Object type
Payload
Rocket body
Debris
Shape & HBR
Unknown shape, 0.1 m
Radar Cross Section
Small (<0.1 m²)

Expand to show TLE details & history
Last TLE update: 12 hours ago

TLE from 12 hours ago
0 DELTA 1 DEB
1 12532U 76077DM  26105.97503594  .00000897  00000-0  37567-2 0  9990
2 12532 102.1368  99.4595 0245527  48.1470 329.2740 12.78254011372860
Epoch: 2026-04-15T23:24Z
TLE epoch observation values (Epoch: 2026-04-15T23:24:03.105Z)
Latitude
15.56176°
Longitude
-99.09862°
Altitude
1,188.574 km
Speed
7.336 km/s
True Right ascension
06h 24m 10s
True Declination
15° 28' 41"
Sunlit
Object was in daylight at epoch
Visualization orbit readout
Latitude
Unknown
Longitude
Unknown
Altitude
Unknown
Speed
Unknown
Apparent Right ascension
Unknown
Apparent Declination
Unknown
Sunlit
N/A
Visualization observer readout
Local Sidereal Time
18:07:52
Azimuth
Unknown
Elevation
Unknown
Doppler factor
Unknown
Orbital elements
Apogee altitude
1,535.678 km
Perigee altitude
1,156.38 km
Semi-major axis
7,724.166 km
Eccentricity
0.02455
Inclination
102.1368°
RAAN
99.4595°
Arg. of periapsis
48.147°
True anomaly
327.79773°
Mean anomaly
329.274°
Eccentric anomaly
328.5398°
Mean motion
3.19717 °/min
Orbital period
112.6 mins
BSTAR
0.0037567
Loading maneuver chart data...
Computing Atmospheric mass density...
Loading historical data...
Loading historical data...
Loading historical data...
Loading historical data...
Loading historical data...
Loading historical data...
Loading historical data...

Documentation

Showing up to 5 results
|